Location: ????? ??????
(37.8317°N, 23.8750°E)
Time: 12:57:03
(UTC+00:00)

Cosmos 1340 - Pass Details

Date: 20 January 2021
Orbit: 501 x 503 km, 81.2° (Epoch: 03 March)

Event Time Altitude Azimuth Distance (km) Brightness Sun altitude
Rises 17:25:43 0° 186° (S) 2,581 6.4 -21.7°
Reaches altitude 10° 17:27:50 10° 186° (S) 1,701 5.5 -22.1°
Enters shadow 17:30:35 48° 182° (S) 664 3.2 -22.7°
